Theta_e
313 319 322 322 316 312 316 319 316 317 318 319 319 319 326 330 330 330 332 330 335 337 337 328 334 336 332 333 333 333 334 335 336 336 335 335 334 334 335 334 334 335 337 333 333 328 324 327 333
318 321 322 319 311 314 314 314 315 315 317 318 319 319 321 325 326 330 326 331 334 332 335 334 333 334 335 334 333 333 333 335 336 336 335 335 335 335 335 334 333 334 336 335 333 330 329 332 334
318 318 319 311 310 314 314 314 314 315 316 317 318 322 319 317 319 320 325 331 330 333 332 331 331 327 325 333 335 330 331 333 334 336 336 335 335 335 335 334 333 333 336 337 335 334 334 334 332
318 319 316 310 314 312 314 313 313 313 316 317 317 316 316 315 316 316 329 329 327 329 333 333 331 329 330 328 331 332 333 330 332 334 336 336 336 335 335 335 333 334 337 338 332 332 334 331 318
316 315 309 312 312 313 312 313 314 312 314 315 316 315 316 312 314 315 316 327 327 327 329 329 331 331 327 330 332 330 332 332 333 333 334 336 336 336 335 335 333 334 337 337 332 331 331 318 318
315 311 308 309 310 312 312 314 314 312 313 314 313 315 310 309 311 312 313 316 327 327 327 328 328 330 327 325 326 331 332 332 334 333 333 334 334 334 334 334 333 335 336 336 333 332 321 319 327
312 307 309 309 310 314 313 314 313 313 312 313 312 313 313 309 309 310 311 313 315 322 327 328 327 327 328 329 328 328 328 330 331 333 333 333 334 334 335 335 335 336 335 327 325 321 320 327 326
314 307 310 309 308 314 312 313 311 311 311 311 311 307 307 307 308 309 310 311 312 316 321 325 327 327 327 327 327 326 327 328 327 326 326 324 327 333 330 335 335 333 326 322 320 323 327 324 317
313 306 308 310 311 311 311 310 310 310 311 310 309 307 308 308 308 310 310 310 309 309 313 317 323 327 326 327 326 325 323 323 324 322 321 322 322 321 324 327 332 330 329 320 325 326 321 315 311
310 306 311 310 310 310 309 309 308 309 309 310 309 308 307 308 308 308 308 308 308 308 308 311 314 319 325 326 326 325 322 322 322 321 321 322 321 321 321 322 322 322 324 324 322 319 314 309 305
310 310 310 311 311 310 308 308 308 307 307 308 307 308 308 308 307 307 307 307 306 307 307 307 309 311 316 323 325 325 323 322 321 321 321 322 321 320 321 321 318 316 315 318 316 312 307 303 302
308 308 309 309 308 308 308 307 306 306 307 307 307 307 307 307 306 306 306 306 306 306 306 307 307 308 310 314 323 324 323 324 323 321 321 321 321 321 323 321 321 307 304 307 309 306 303 303 302
306 306 307 308 308 308 307 306 305 305 305 305 306 306 306 306 306 305 305 304 304 304 304 305 307 307 308 310 316 322 324 324 323 321 320 321 322 321 319 320 321 314 306 305 305 303 302 302 302
306 305 304 304 305 306 305 304 305 305 306 306 306 306 306 306 305 304 304 303 303 303 304 304 305 306 307 308 315 320 322 322 323 321 319 320 321 320 321 321 322 321 311 303 302 302 302 302 302
304 302 301 303 304 305 305 303 304 305 305 306 306 306 305 304 303 303 302 302 302 302 303 303 304 306 307 308 315 320 325 322 322 321 319 320 321 321 320 322 321 320 317 305 302 302 302 302 303
303 300 301 303 305 305 305 303 304 306 306 306 306 304 303 303 303 302 301 301 301 302 303 303 304 305 309 315 316 321 324 322 322 322 319 319 319 318 319 318 319 319 319 315 305 302 302 302 303
299 302 303 302 305 305 305 302 304 306 305 304 304 303 301 301 302 301 300 300 301 303 304 304 304 305 310 317 318 319 320 322 322 322 322 321 319 319 319 319 318 317 317 317 317 307 303 302 302
303 302 302 302 301 302 303 302 301 304 304 304 302 302 300 300 300 299 299 300 301 303 305 305 305 308 311 315 317 318 318 321 322 321 322 322 322 321 320 319 318 318 319 317 317 311 303 302 302
302 302 301 299 300 302 302 301 301 302 302 302 301 300 299 300 299 298 298 299 300 303 305 305 305 308 310 313 315 315 317 319 320 320 320 320 321 321 321 319 320 320 319 317 315 310 305 303 301
302 302 300 300 302 302 300 300 299 300 299 300 300 299 300 299 298 297 296 297 299 302 304 304 305 307 309 311 314 316 316 316 318 319 318 319 319 320 320 320 320 319 315 315 314 311 307 303 302
301 302 302 302 301 300 299 298 298 298 299 299 299 299 297 297 296 295 293 294 295 297 302 304 305 306 307 309 311 314 314 314 315 317 317 317 315 316 316 316 316 316 316 313 310 309 308 306 306
302 303 302 302 300 300 300 297 298 299 299 298 298 297 296 296 295 293 292 292 292 292 293 298 303 305 307 308 310 312 312 312 313 315 315 315 315 313 314 314 313 312 313 308 305 304 305 303 303
302 302 302 302 301 301 299 297 298 298 301 300 298 296 295 295 294 293 292 292 292 292 291 292 293 297 303 308 309 310 310 310 311 312 311 311 314 312 312 310 310 310 309 307 306 303 303 302 304
302 302 298 299 299 292 300 299 299 299 300 298 298 296 295 295 294 293 292 292 292 292 292 292 291 292 292 294 299 304 307 307 307 308 309 308 308 309 309 309 308 308 307 307 303 301 303 303 305
300 296 289 292 292 294 299 299 299 298 298 298 297 297 296 294 294 293 292 293 293 292 292 292 291 291 291 291 291 292 295 300 305 305 305 305 306 307 307 307 308 307 306 307 306 305 306 304 301
302 298 291 289 294 295 298 297 298 298 298 296 295 295 295 294 294 294 293 293 293 293 292 291 291 291 290 290 290 290 290 290 292 297 298 301 305 306 306 305 307 306 305 305 305 304 305 300 299
301 298 300 291 286 292 298 297 296 297 296 296 296 295 295 295 294 294 294 293 293 293 292 291 291 290 290 290 290 289 289 289 289 289 290 295 300 304 304 304 305 303 304 304 304 304 302 300 299
300 298 295 290 290 291 295 296 295 297 295 294 295 296 296 295 293 294 293 293 293 293 292 291 290 290 290 290 289 289 288 289 289 288 289 289 290 292 296 302 305 306 304 304 305 305 305 306 306
296 295 296 296 295 292 291 294 292 295 293 293 293 293 293 293 293 293 293 292 292 292 291 290 293 293 294 293 292 290 289 288 288 288 288 288 288 288 289 292 298 301 303 304 306 305 306 306 306
297 298 296 291 292 294 292 297 294 292 292 292 291 291 292 292 291 294 292 291 291 294 295 292 292 293 291 290 288 289 288 288 288 288 287 287 287 287 288 288 290 294 298 301 304 304 304 305 305
Wind_Speed
5 3 2 4 5 6 3 3 3 7 5 8 8 6 8 11 3 0 9 15 16 17 15 11 6 7 6 7 6 7 6 6 8 9 10 9 9 9 8 8 9 10 11 7 8 9 11 10 9
6 3 5 4 5 4 2 5 6 3 5 10 8 9 6 3 19 6 15 18 16 15 17 16 13 9 8 8 4 5 6 6 8 9 10 11 11 10 10 9 10 11 11 9 10 10 10 10 9
5 7 5 4 3 4 3 3 2 10 14 10 5 12 6 9 13 17 18 17 15 16 15 14 17 23 28 13 5 8 6 8 9 10 10 11 12 12 12 11 12 12 13 12 9 11 11 10 8
3 4 5 5 5 7 4 3 4 8 10 13 7 6 6 14 10 19 18 16 17 15 17 16 18 13 9 9 12 5 9 14 12 12 11 12 13 14 14 14 14 14 16 16 12 10 10 9 9
6 3 5 5 5 1 2 1 13 6 4 13 11 3 5 16 15 18 21 17 17 17 16 14 13 11 22 20 13 9 13 12 13 13 11 13 15 15 16 16 16 16 18 22 16 12 11 10 10
4 3 5 3 5 3 1 9 11 6 9 13 10 3 7 14 15 19 22 21 17 18 16 13 12 13 10 13 22 16 12 12 11 12 11 12 14 17 18 18 18 20 22 21 12 11 11 12 12
6 4 4 4 3 2 2 4 9 5 7 5 12 2 1 18 14 13 18 19 19 16 15 14 14 13 13 12 8 16 18 16 13 8 4 6 14 12 19 20 19 22 20 13 11 14 13 12 12
4 5 3 2 2 2 8 2 6 10 3 12 8 4 5 15 13 11 16 19 16 16 16 15 13 14 15 14 13 12 13 18 19 21 22 17 17 11 3 24 23 21 16 13 14 14 13 13 13
3 4 2 1 2 3 7 5 7 6 7 5 4 6 6 14 17 20 20 20 19 15 16 17 16 12 10 14 10 10 9 13 19 29 31 33 31 34 20 18 24 19 13 14 15 15 14 13 12
6 4 2 2 3 3 1 5 7 6 11 5 8 7 10 17 23 22 22 24 23 23 18 17 17 17 14 10 10 11 8 11 11 13 16 16 21 19 17 8 20 15 17 16 15 13 11 11 11
3 3 2 4 4 4 4 7 9 6 3 2 5 12 16 21 22 21 21 23 26 25 22 18 17 15 16 13 10 10 8 9 8 9 8 13 7 6 14 18 13 17 15 16 14 12 11 12 12
4 7 4 2 3 3 4 6 9 4 4 2 5 6 9 13 17 20 23 25 29 29 26 21 17 16 14 13 11 9 8 8 8 6 6 7 6 7 10 11 15 15 12 12 13 12 12 12 12
4 5 6 5 6 4 5 6 5 15 15 10 5 5 6 10 13 18 21 25 27 28 25 22 18 16 16 14 10 9 9 7 5 5 6 4 4 2 3 5 10 11 9 8 10 11 12 12 12
3 6 11 9 5 2 2 4 3 2 3 1 3 3 6 10 13 19 24 26 27 26 24 21 18 16 16 14 12 10 11 8 4 0 4 4 1 6 5 4 9 14 14 9 10 11 11 11 11
3 5 7 4 3 3 3 3 3 8 4 5 4 3 4 8 14 20 23 26 27 26 24 22 17 15 14 13 10 10 12 11 8 7 5 7 7 3 6 8 4 1 13 16 9 9 10 10 10
4 4 4 5 4 4 4 6 5 2 3 7 10 3 2 6 13 18 22 25 25 24 23 21 18 14 12 9 9 9 11 11 12 11 9 8 8 9 9 6 3 2 1 13 14 12 8 8 9
6 1 3 6 5 1 4 7 7 4 13 19 12 4 0 4 12 18 23 24 24 24 23 21 18 13 9 7 9 9 8 11 11 9 10 9 9 9 10 8 9 9 10 2 9 14 8 6 9
1 2 2 3 5 7 4 13 10 20 18 23 10 6 3 6 13 18 22 22 21 21 20 19 18 11 8 7 7 8 8 10 12 14 15 12 13 12 10 10 10 12 14 7 13 16 16 9 9
2 1 2 4 5 5 1 7 17 22 13 15 7 7 4 8 12 16 18 19 19 19 19 18 19 16 11 8 8 9 8 8 9 13 15 15 16 16 14 15 12 12 17 9 13 17 17 15 7
2 2 4 5 5 3 6 10 6 7 5 5 11 7 1 6 11 14 15 17 18 19 17 16 15 15 12 9 6 5 7 9 4 6 11 14 15 18 18 17 16 13 15 12 13 15 19 18 15
4 2 3 4 7 2 6 6 7 5 8 7 4 1 2 7 10 12 14 16 17 18 19 17 14 14 12 10 11 9 8 9 9 6 7 9 7 11 14 15 14 13 11 14 16 16 14 18 20
2 2 2 4 5 2 5 4 6 6 4 4 3 1 3 8 9 9 11 13 16 19 18 17 14 11 11 10 8 7 8 8 7 7 6 6 7 8 10 12 14 13 14 15 16 16 14 13 15
3 2 3 1 1 3 5 3 7 4 3 5 10 3 2 5 7 8 8 10 13 15 18 19 20 17 13 12 10 8 6 5 3 3 4 5 6 7 6 9 11 13 14 15 17 17 17 16 16
3 3 6 4 2 3 3 3 5 3 4 5 8 5 4 3 5 5 4 6 9 12 14 16 18 20 21 20 16 13 13 10 6 3 2 4 3 2 4 7 9 13 13 16 16 20 18 18 16
6 6 4 6 4 4 3 2 7 5 4 5 11 10 8 4 6 5 4 4 6 9 12 14 17 19 20 21 21 21 18 13 13 15 11 5 4 4 3 3 4 10 13 14 16 18 17 16 16
3 4 5 5 3 4 4 4 2 3 7 11 15 7 3 7 8 8 8 6 6 8 11 13 15 17 19 21 22 21 21 20 19 15 12 13 10 7 3 4 3 4 5 8 11 12 13 13 13
1 2 3 4 1 3 2 5 7 1 11 15 15 15 12 13 14 13 10 9 8 8 9 10 11 14 17 20 21 21 21 20 20 19 16 11 8 7 6 6 2 5 7 6 7 9 9 11 13
2 4 3 3 2 5 4 3 5 5 5 9 18 23 27 26 23 16 14 12 9 8 8 8 10 14 17 18 19 18 19 19 20 19 18 17 16 12 6 4 5 9 6 5 7 8 9 11 14
2 1 4 3 4 4 3 4 6 4 7 7 17 30 32 33 28 19 16 13 9 6 7 8 14 17 18 19 17 15 16 17 17 17 18 18 16 14 13 10 4 3 9 8 7 8 9 9 9
3 5 5 4 5 4 3 11 7 9 7 19 23 27 26 27 27 19 16 10 10 17 18 16 16 16 13 10 11 12 12 13 14 16 17 17 17 16 14 13 11 7 8 8 8 10 10 12 11
Wind_Direction
20 6 351 51 58 61 30 50 321 19 12 2 358 47 117 58 348 242 331 341 342 330 329 329 314 257 247 222 218 230 214 222 215 214 210 203 197 196 201 204 196 188 193 199 189 169 158 149 147
34 26 56 62 81 72 310 309 27 332 347 355 355 25 61 35 21 330 337 339 341 339 331 341 295 356 305 277 221 235 243 231 235 225 225 217 214 212 214 216 209 202 207 201 191 170 160 151 158
46 33 40 77 99 125 138 291 350 4 18 27 12 48 48 332 2 350 335 331 337 352 347 325 331 305 324 319 267 246 269 256 251 238 235 230 225 222 223 220 216 211 204 187 167 166 156 157 165
71 56 60 84 86 5 110 268 28 11 23 27 23 54 83 38 15 0 353 338 337 354 357 345 335 352 317 295 313 296 266 261 264 245 240 239 236 231 229 225 219 211 198 188 187 185 165 163 166
63 60 60 84 73 85 317 74 64 52 25 8 20 31 75 17 12 3 358 348 344 350 356 1 351 330 290 316 300 282 261 254 268 257 250 255 253 246 239 230 223 214 201 196 182 179 174 168 173
62 51 64 94 115 189 15 53 42 56 17 14 11 67 58 20 3 359 347 353 345 338 350 355 356 345 333 293 318 300 283 249 256 245 239 235 240 258 246 231 223 211 211 205 174 179 179 178 177
97 77 163 137 137 62 323 62 48 23 6 351 337 356 231 5 8 350 335 337 346 339 331 353 7 3 349 352 324 314 314 291 254 264 278 283 258 241 246 221 218 218 184 178 180 184 182 179 183
78 90 100 36 126 78 1 56 51 25 324 347 12 22 345 359 350 333 320 323 330 341 343 342 351 7 351 353 357 349 321 301 278 318 345 13 360 258 268 214 210 183 171 169 181 183 182 183 189
46 59 67 30 97 136 34 29 17 1 348 34 60 67 0 333 325 321 326 331 338 341 341 332 339 347 353 350 359 355 343 327 320 305 324 315 323 333 335 114 183 178 173 167 187 187 187 188 198
62 88 147 309 107 134 65 35 360 1 332 322 320 348 347 329 331 334 334 337 342 345 347 336 329 327 323 326 340 337 342 345 355 5 340 291 312 328 306 32 129 161 165 188 190 189 190 196 204
36 127 144 30 88 42 10 355 344 340 314 287 313 325 325 325 327 331 333 333 334 334 335 333 324 323 313 319 321 325 329 332 346 355 313 286 289 321 320 276 304 143 155 178 184 184 190 193 199
75 30 21 89 13 356 329 317 319 281 273 334 319 329 334 339 332 333 333 330 328 327 324 325 321 314 305 306 310 308 315 325 343 358 359 308 276 264 238 222 274 143 152 183 183 183 187 189 196
60 352 336 307 301 290 281 275 273 282 292 287 290 313 340 333 332 328 328 323 323 323 321 318 318 312 307 295 295 294 292 311 331 20 27 15 242 326 201 191 216 199 155 183 187 182 180 183 191
337 313 300 301 287 244 261 290 342 323 343 328 331 347 327 324 330 321 323 331 329 330 327 324 313 311 304 296 288 286 281 292 290 101 80 72 126 135 69 245 215 191 167 177 180 174 173 177 188
352 355 342 351 272 216 320 338 227 329 325 308 348 331 305 324 322 332 333 333 334 334 334 328 319 311 307 299 290 282 276 271 252 201 129 123 150 196 21 169 149 267 208 174 175 170 166 168 182
31 48 28 328 102 356 10 278 289 348 319 314 322 308 284 320 335 335 336 336 337 335 338 336 327 314 309 307 303 304 277 267 244 209 172 144 142 125 118 88 105 147 243 214 188 166 168 173 180
9 49 357 337 41 49 23 276 277 325 318 312 319 262 121 342 331 338 340 339 339 340 339 338 334 320 308 316 305 310 279 278 268 254 216 204 187 163 145 131 128 128 136 176 202 191 191 193 185
309 8 325 276 329 3 293 281 293 303 307 301 306 180 103 350 347 342 338 340 343 343 341 339 338 336 319 312 306 297 270 262 241 251 237 240 236 229 204 197 190 197 182 177 180 190 178 187 186
140 180 268 267 303 343 169 283 290 315 309 319 163 130 77 360 346 339 344 349 349 350 349 349 353 356 340 304 293 292 289 271 265 251 242 241 246 241 228 223 229 232 209 203 215 193 185 178 188
54 358 336 296 336 335 351 293 324 21 6 2 150 143 303 337 344 354 358 2 3 0 360 356 360 353 342 317 301 312 307 282 316 261 250 246 238 238 228 232 241 237 203 200 204 203 190 183 180
29 24 6 275 323 323 347 337 338 46 68 79 110 189 24 8 0 3 10 17 18 17 13 8 4 354 345 319 302 297 291 284 292 295 263 262 240 235 234 234 225 218 210 208 195 196 198 195 194
33 348 327 324 25 315 50 283 308 338 344 298 279 304 37 15 5 11 20 27 30 30 27 23 12 4 352 347 325 315 306 292 282 293 302 287 255 238 234 230 220 213 212 195 195 195 198 193 204
245 292 285 265 92 1 3 66 274 329 319 330 329 296 340 352 355 8 24 31 35 35 32 34 34 34 25 20 21 8 2 2 343 317 320 296 268 263 247 226 217 208 207 205 212 204 206 201 221
304 334 41 48 75 28 247 111 283 301 325 336 335 268 256 303 334 343 5 20 28 31 31 31 32 35 37 39 40 32 31 26 26 28 59 26 12 291 287 262 238 216 209 214 203 210 222 228 210
51 40 352 354 5 217 249 3 246 298 5 311 301 272 236 254 299 310 296 328 3 17 25 28 28 30 32 32 36 38 40 33 25 21 23 28 65 89 78 319 262 249 218 218 216 221 212 206 203
64 116 142 242 271 270 279 235 243 5 339 350 2 350 255 269 274 290 287 290 326 350 6 16 24 26 25 24 26 28 30 31 32 35 19 1 17 23 20 54 336 291 239 230 204 208 201 202 218
172 74 156 106 66 25 244 310 320 149 20 25 7 347 301 278 274 274 269 268 301 332 353 7 18 20 19 16 11 13 17 20 25 24 24 20 9 341 316 327 153 319 285 249 227 210 213 211 221
111 149 64 9 13 305 275 240 234 354 319 17 10 7 3 344 295 264 265 269 274 306 333 349 5 8 6 3 1 3 5 8 9 11 15 16 16 16 358 314 284 286 279 270 248 233 231 236 239
36 33 58 118 149 189 286 258 210 111 46 1 360 348 338 337 343 286 257 264 270 311 324 329 328 331 340 343 338 337 344 352 355 359 2 7 11 11 6 4 340 314 295 284 269 257 242 241 245
178 178 143 132 252 222 176 268 306 100 75 11 344 342 338 339 343 322 249 255 277 306 283 300 303 299 305 310 315 320 328 337 346 354 358 1 1 3 6 7 359 339 294 294 284 265 242 237 239